Regional Weather Roundup
Issued by NWS Newport/Morehead, NC

Current Version | Previous Version | Graphics & Text | Print | Product List | Glossary Off
Versions: 1 2 3 4 5 6 7 8 9 10 11 12 13 14 15 16 17 18 19 20 21 22 23 24 25 26 27 28 29 30 31 32 33 34 35 36 37 38 39 40 41 42 43 44 45 46 47 48 49 50

609
ASUS42 KMHX 170614
RWRMHX
WEATHER ROUNDUP FOR EASTERN NORTH CAROLINA
NATIONAL WEATHER SERVICE NEWPORT/MOREHEAD CITY NC
100 AM EST SUN DEC 17 2017

NOTE: "FAIR" INDICATES FEW OR NO CLOUDS BELOW 12,000 FEET
WITH NO SIGNIFICANT WEATHER AND/OR OBSTRUCTIONS TO VISIBILITY

NCZ015>017-031-032-045>047-102-103-170700-
NORTH COAST

CITY           SKY/WX    TMP DP  RH WIND       PRES   REMARKS
EDENTON        NOT AVBL
ELIZABETH CITY CLOUDY    34  30  85 SW5       30.27R
KITTY HAWK     CLEAR     37  32  80 CALM      30.26R
MANTEO         CLOUDY    38  32  78 W6        30.28R

$$

NCZ045>047-081-094-103-104-170700-
CENTRAL COAST

CITY           SKY/WX    TMP DP  RH WIND       PRES   REMARKS
FRISCO         CLEAR     34  33  96 W5        30.29S

$$

NCZ095-097-098-100-101-170700-
SOUTHERN COAST

CITY           SKY/WX    TMP DP  RH WIND       PRES   REMARKS
BEAUFORT       CLEAR     42  34  73 W7        30.30S
CEDAR ISLAND   NOT AVBL
JACKSONVILLE   CLOUDY    36  31  82 SW6       30.30F
PINEY ISLAND     N/A    N/A N/A N/A SW7       30.29S
WILMINGTON     PTCLDY    32  30  92 CALM      30.31F


$$

NCZ011>013-027>030-043-044-078>080-089-090>093-098-170700-
COASTAL PLAIN

CITY           SKY/WX    TMP DP  RH WIND       PRES   REMARKS
AHOSKIE        CLOUDY    31  26  79 CALM      30.26F
CLINTON        CLOUDY    31  29  89 CALM      30.30F
ELIZABETHTOWN  NOT AVBL
GOLDSBORO      CLOUDY    32  25  76 CALM      30.26F
GREENVILLE     CLOUDY    32  28  86 CALM      30.29S
HAVELOCK       CLOUDY    37  31  78 SW6       30.30F
KENANSVILLE    CLOUDY    28  25  86 CALM      30.30S
KINSTON        NOT AVBL
NEW BERN       CLOUDY    32  28  85 SW3       30.30F
RICHLANDS      CLOUDY    29  27  92 SW5       30.30F
ROCKY MOUNT    CLEAR     31  27  85 S3        30.27F
WASHINGTON     CLEAR     32  28  83 CALM      30.29S
WHITEVILLE     CLOUDY    34  31  90 CALM      30.30F

$$

AMZ130-135-150-152-154-156-158-170-250-252-270-ANZ085-086-088-633-658-670-170700-
MARINE OBSERVATIONS

STATION/POSITION TIME  TEMP    WIND        PRES    WAVE   SWELL
                       AIR SEA DIR/SP/G            HT/PER HT/PER
                 (UTC) (F)     (DEG/KT/KT) (MB)    (FT/S) (FT/S)
CHESAPEAKE LIGHT NOT AVBL
64 E VA BEACH    0550   51 59  270/ 16/ 17 1024.6    3/ 5
DUCK             0548   42 52  230/  8/  9 1024.4
2 E DUCK         0530      54                N/A     1/11
OREGON INLET     0542   43 46  240/  9/ 11 1025.2
13E OREGON INLT  0548      58                N/A     2/ 8   2/ 8
HATTERAS CG      0548      51  250/  5/  6 1025.3
DIAMOND BUOY     0550   53 72  290/ 14/ 17 1025.6    3/ 6   2/ 6
CAPE LOOKOUT     0600          270/  9/ 10 1025.9
BEAUFORT LAB     0548      49  280/  2/  4 1025.8
30 SE NEW RVR IN 0508   52 63  270/  8/ 14 1026.3
30 SE NEW RVR IN 0530      63                N/A     2/ 6
27 SE WRIGHTSVLE NOT AVBL
5 SE WRIGHTSVLE  0508   49 56  280/  8/ 10 1026.3
225 S CAPE HAT   0550   62 74  320/  4/  8 1025.2    4/ 6   3/ 6
41 SE CHARLESTON 0550   59 72   CALM  /  2 1025.3    2/ 8   2/ 8

$$




USA.gov is the U.S. government's official web portal to all federal, state and local government web resources and services.